"Pseudo-MPEC" for P112g2V

Created 2020 Jul 11 10:07:07 UT using Find_Orb

Click here for an explanation of pseudo-MPECs

 
 Astrometry: 
     P112g2V  C2020 06 29aqHl9BsF7+xH:=0;CB0k+qlC/eAstrometryI_rF-Yredacted;qF51
     P112g2V  C2020 06 29U%dRS1i^/lR'GJEWo*(a'7clickLPPEP]X9^fk7w4Oa[h](l\9bfF51
     P112g2V  C2020 06 29uInfPx=u)S+mkq8(I'WdalRDtxg:Gb;OnmlivFv':BS,Jhere3\fF51
     P112g2V  C2020 06 29uNrs#Jje!S)p(wcN@:tpuhfor8Nu=explanation*bSJ7'v1^GeOF51
     P112g2V  C2020 06 302f\o6Fylfmf6i/)=^FFyL8ZII?JhH6.*+DHQwnqk4aZCjQ'j-(iZF51
     P112g2V  C2020 06 30@$]CC-eECs)Nq+Yny*93kM16%l2NJFnN)kKjVp3OS;F^No7X.$$\F51

Station data:
(F51) Pan-STARRS 1, Haleakala  (N20.707235 W156.255910)  US/Hawaii.
   Observers N. Primak, A. Schultz, S. Watters, J. Thiel, T. Goggia. Measurer
   PS1 Science Consortium. 1.8-m Ritchey-Chrétien + CCD.

Orbital elements:  P112g2V
   Perihelion 2020 Sep 24.101457 +/- 41.4 TT =  2:26:05 (JD 2459116.601457)
Epoch 2020 Jun 30.0 TT = JDT 2459030.5   Earth MOID: 0.2775   Ma: 0.0218
M 336.01809646 +/- 26               (J2000 ecliptic)          AutoNEOCP
n   0.27853075 +/- 0.261            Peri.  100.93938 +/- 60
a   2.32213402 +/- 1.45             Node   262.29909 +/- 19
e   0.4537422 +/- 0.237             Incl.    4.13227 +/- 1.1
P   3.54                   H 20.1   G  0.15   U 11.8  SR
q 1.26848363 +/- 0.395    Q 3.37578440 +/- 29.9
From 6 observations 2020 June 29-30 (23.6 hr); mean residual 0".11
Residuals in arcseconds: 
200629 F51  .24+  .10-    200629 F51  .06-  .04+    200630 F51  .12+  .03+    
200629 F51  .00   .05-    200629 F51  .19-  .12+    200630 F51  .11-  .04-    

Ephemerides (geocentric):
Date (UTC) HH   RA              Dec         delta   r     elong  mag " sig PA
---- -- -- --  -------------   -----------  ------ ------ -----  --- ---- ---
2020 07 11 10  22 31 28.608   -01 30 27.64  .59513 1.4711 129.9 21.2 2885 143
2020 07 11 11  22 31 32.529   -01 29 38.55  .59478 1.4709 129.9 21.2 2909 143
2020 07 11 12  22 31 36.448   -01 28 49.44  .59443 1.4707 130.0 21.2 2934 143
2020 07 11 13  22 31 40.367   -01 28 00.31  .59407 1.4705 130.0 21.2 2959 143
2020 07 11 14  22 31 44.286   -01 27 11.16  .59372 1.4703 130.0 21.2 2984 143
2020 07 11 15  22 31 48.203   -01 26 22.00  .59337 1.4702 130.0 21.2 3010 143
2020 07 11 16  22 31 52.121   -01 25 32.82  .59302 1.4700 130.0 21.2 3035 143
2020 07 11 17  22 31 56.037   -01 24 43.62  .59267 1.4698 130.1 21.2 3061 143
2020 07 11 18  22 31 59.953   -01 23 54.40  .59232 1.4696 130.1 21.2 3087 143
2020 07 11 19  22 32 03.868   -01 23 05.17  .59197 1.4694 130.1 21.2 3113 143
2020 07 11 20  22 32 07.782   -01 22 15.92  .59162 1.4692 130.1 21.2 3139 143
2020 07 11 21  22 32 11.696   -01 21 26.65  .59127 1.4690 130.1 21.2 3165 143
2020 07 11 22  22 32 15.609   -01 20 37.37  .59092 1.4688 130.1 21.2 3191 143
2020 07 11 23  22 32 19.521   -01 19 48.07  .59057 1.4686 130.2 21.2 3218 143
2020 07 12 00  22 32 23.433   -01 18 58.75  .59022 1.4684 130.2 21.2 3244 143
2020 07 12 01  22 32 27.344   -01 18 09.41  .58987 1.4682 130.2 21.2 3271 143
2020 07 12 02  22 32 31.255   -01 17 20.06  .58952 1.4680 130.2 21.2 3298 143
2020 07 12 03  22 32 35.165   -01 16 30.69  .58917 1.4678 130.2 21.2 3325 143
2020 07 12 04  22 32 39.074   -01 15 41.31  .58882 1.4676 130.3 21.2 3352 143
2020 07 12 05  22 32 42.982   -01 14 51.90  .58847 1.4674 130.3 21.2 3380 143
2020 07 12 06  22 32 46.890   -01 14 02.48  .58812 1.4672 130.3 21.2 3407 143
2020 07 12 07  22 32 50.797   -01 13 13.05  .58778 1.4670 130.3 21.2 3435 143
2020 07 12 08  22 32 54.704   -01 12 23.59  .58743 1.4668 130.3 21.2 3463 143
2020 07 12 09  22 32 58.609   -01 11 34.12  .58708 1.4666 130.3 21.1 3491 143
2020 07 12 10  22 33 02.515   -01 10 44.63  .58673 1.4664 130.4 21.1 3519 143
2020 07 12 11  22 33 06.419   -01 09 55.12  .58638 1.4662 130.4 21.1 3548 143
2020 07 12 12  22 33 10.323   -01 09 05.60  .58604 1.4660 130.4 21.1 3576 143
2020 07 12 13  22 33 14.226   -01 08 16.06  .58569 1.4658 130.4 21.1 3605 143
2020 07 12 14  22 33 18.128   -01 07 26.51  .58534 1.4656 130.4 21.1 3634 143
2020 07 12 15  22 33 22.030   -01 06 36.93  .58500 1.4654 130.5 21.1 3663 143
2020 07 12 16  22 33 25.931   -01 05 47.34  .58465 1.4652 130.5 21.1 3692 143
2020 07 12 17  22 33 29.832   -01 04 57.73  .58430 1.4650 130.5 21.1 3721 143
2020 07 12 18  22 33 33.732   -01 04 08.11  .58396 1.4648 130.5 21.1 3750 143
2020 07 12 19  22 33 37.631   -01 03 18.47  .58361 1.4646 130.5 21.1 3780 143
2020 07 12 20  22 33 41.529   -01 02 28.81  .58327 1.4644 130.5 21.1 3810 143
2020 07 12 21  22 33 45.427   -01 01 39.13  .58292 1.4642 130.6 21.1 3840 143
2020 07 12 22  22 33 49.324   -01 00 49.44  .58258 1.4640 130.6 21.1 3870 143
2020 07 12 23  22 33 53.220   -00 59 59.73  .58223 1.4638 130.6 21.1 3900 142
2020 07 13 00  22 33 57.116   -00 59 10.01  .58189 1.4636 130.6 21.1 3931 142
2020 07 13 01  22 34 01.011   -00 58 20.26  .58154 1.4634 130.6 21.1 3961 142
2020 07 13 02  22 34 04.906   -00 57 30.50  .58120 1.4632 130.7 21.1 3992 142
2020 07 13 03  22 34 08.799   -00 56 40.73  .58085 1.4631 130.7 21.1 4023 142
2020 07 13 04  22 34 12.692   -00 55 50.93  .58051 1.4629 130.7 21.1 4054 142
2020 07 13 05  22 34 16.585   -00 55 01.12  .58016 1.4627 130.7 21.1 4086 142
2020 07 13 06  22 34 20.476   -00 54 11.30  .57982 1.4625 130.7 21.1 4117 142
2020 07 13 07  22 34 24.367   -00 53 21.45  .57948 1.4623 130.8 21.1 4149 142
2020 07 13 08  22 34 28.258   -00 52 31.59  .57913 1.4621 130.8 21.1 4180 142
2020 07 13 09  22 34 32.147   -00 51 41.71  .57879 1.4619 130.8 21.1 4212 142